St. Paul Lake Elmo, MN

1:14 PM CST on December 05, 2019 (GMT -0600)
St. Paul Lake Elmo

Weather History for K21D - September, 2019

Change the Weather History Date:

Friday, September 6, 2019

  Actual Average (WUND) Record (WUND)
Temperature  
Mean Temperature 68 °F -  
Max Temperature 73 °F - - (-1)
Min Temperature 62 °F - - (-1)
Cooling Degree Days 2    
Growing Degree Days 18 (Base 50)    
Moisture  
Dew Point 58 °F    
Average Humidity 75    
Maximum Humidity 94    
Minimum Humidity 61    
Precipitation  
Precipitation 0.00 in - - ()
Sea Level Pressure  
Sea Level Pressure 30.07 in    
Wind  
Wind Speed 8 mph (WSW)    
Max Wind Speed 17 mph    
Max Gust Speed 25 mph    
Visibility 10 miles    
Events      
Averages and records for this station are not official NWS values.
T = Trace of Precipitation, MM = Missing Value Source: NWS Daily Summary

Daily Weather History Graph

Daily Weather History Graph

Search for Another Location

Airport or City:

Astronomy

Sep. 06, 2019 Rise Set
Actual Time 6:39 AM CDT 7:39 PM CDT
Civil Twilight 6:09 AM CDT 8:09 PM CDT
Nautical Twilight 5:33 AM CDT 8:45 PM CDT
Astronomical Twilight 4:55 AM CDT 9:22 PM CDT
Moon 3:08 PM CDT (9/6) No Moon Set
Length of Visible Light 14h 00m
Length of Day
13h 00m
First Quarter, 56% of the Moon is Illuminated
Sep 6
First Quarter
Sep 13
Full
Sep 21
Last Quarter
Sep 28
New
Oct 5
First Quarter

Hourly Weather History & Observations

Time (CDT) Temp. Dew Point Humidity Pressure Visibility Wind Dir Wind Speed Gust Speed Precip Events Conditions
12:16 AM 68.0 °F 60.8 °F 78% 29.94 in 10.0 mi WSW 12.7 mph 19.6 mph N/A   Unknown
12:35 AM 68.0 °F 60.8 °F 78% 29.94 in 10.0 mi WSW 9.2 mph 18.4 mph N/A   Unknown
12:55 AM 68.0 °F 60.8 °F 78% 29.95 in 10.0 mi WSW 13.8 mph 18.4 mph N/A   Unknown
12:56 AM 68.0 °F 60.8 °F 78% 29.95 in 10.0 mi WSW 11.5 mph 18.4 mph N/A   Unknown
1:15 AM 68.0 °F 60.8 °F 78% 29.96 in 10.0 mi WSW 8.1 mph 20.7 mph N/A   Unknown
1:37 AM 68.0 °F 60.8 °F 78% 29.97 in 10.0 mi WSW 9.2 mph - N/A   Unknown
1:56 AM 66.2 °F 60.8 °F 83% 29.97 in 10.0 mi WSW 9.2 mph - N/A   Unknown
2:15 AM 66.2 °F 60.8 °F 83% 29.97 in 10.0 mi WSW 10.4 mph - N/A   Unknown
2:16 AM 66.2 °F 60.8 °F 83% 29.97 in 10.0 mi WSW 8.1 mph - N/A   Unknown
2:35 AM 66.2 °F 60.8 °F 83% 29.97 in 10.0 mi WSW 8.1 mph - N/A   Unknown
2:58 AM 66.2 °F 60.8 °F 83% 29.98 in 10.0 mi WSW 10.4 mph - N/A   Unknown
3:16 AM 66.2 °F 59.0 °F 78% 29.99 in 10.0 mi WSW 15.0 mph 23.0 mph N/A   Unknown
3:36 AM 64.4 °F 59.0 °F 83% 29.99 in 10.0 mi WSW 12.7 mph 19.6 mph N/A   Unknown
3:55 AM 64.4 °F 57.2 °F 77% 30.00 in 10.0 mi WSW 12.7 mph 16.1 mph N/A   Unknown
4:15 AM 64.4 °F 59.0 °F 83% 30.01 in 10.0 mi WSW 17.3 mph 25.3 mph N/A   Unknown
4:19 AM 64.4 °F 57.2 °F 77% 30.01 in 10.0 mi WSW 12.7 mph 25.3 mph N/A   Unknown
4:38 AM 64.4 °F 55.4 °F 73% 30.02 in 10.0 mi WSW 12.7 mph 24.2 mph N/A   Unknown
4:55 AM 64.4 °F 57.2 °F 77% 30.02 in 10.0 mi WSW 9.2 mph - N/A   Unknown
5:15 AM 62.6 °F 55.4 °F 77% 30.02 in 10.0 mi WSW 6.9 mph - N/A   Unknown
5:16 AM 62.6 °F 55.4 °F 77% 30.02 in 10.0 mi WSW 6.9 mph - N/A   Unknown
5:35 AM 62.6 °F 55.4 °F 77% 30.03 in 10.0 mi WSW 8.1 mph - N/A   Unknown
5:36 AM 62.6 °F 57.2 °F 82% 30.03 in 10.0 mi WSW 6.9 mph - N/A   Unknown
5:57 AM 62.6 °F 55.4 °F 77% 30.04 in 10.0 mi WSW 9.2 mph - N/A   Unknown
6:15 AM 62.6 °F 55.4 °F 77% 30.04 in 10.0 mi WSW 11.5 mph 19.6 mph N/A   Unknown
6:35 AM 62.6 °F 55.4 °F 77% 30.05 in 10.0 mi WSW 11.5 mph 19.6 mph N/A   Unknown
6:36 AM 62.6 °F 55.4 °F 77% 30.05 in 10.0 mi WSW 12.7 mph 19.6 mph N/A   Unknown
6:55 AM 62.6 °F 55.4 °F 77% 30.06 in 10.0 mi WSW 10.4 mph 18.4 mph N/A   Unknown
6:56 AM 62.6 °F 55.4 °F 77% 30.06 in 10.0 mi WSW 10.4 mph 18.4 mph N/A   Unknown
7:19 AM 62.6 °F 55.4 °F 77% 30.07 in 10.0 mi WSW 6.9 mph 16.1 mph N/A   Unknown
7:36 AM 62.6 °F 55.4 °F 77% 30.07 in 10.0 mi WSW 5.8 mph - N/A   Unknown
7:55 AM 62.6 °F 55.4 °F 77% 30.08 in 10.0 mi WSW 8.1 mph - N/A   Unknown
7:56 AM 62.6 °F 55.4 °F 77% 30.08 in 10.0 mi WSW 8.1 mph - N/A   Unknown
8:15 AM 62.6 °F 55.4 °F 77% 30.09 in 10.0 mi WSW 9.2 mph - N/A   Unknown
8:16 AM 62.6 °F 55.4 °F 77% 30.09 in 10.0 mi WSW 9.2 mph - N/A   Unknown
8:35 AM 62.6 °F 55.4 °F 77% 30.10 in 10.0 mi Calm Calm - N/A   Unknown
8:40 AM 62.6 °F 55.4 °F 77% 30.11 in 10.0 mi Calm Calm - N/A   Unknown
8:57 AM 62.6 °F 55.4 °F 77% 30.11 in 10.0 mi Calm Calm - N/A   Unknown
9:16 AM 62.6 °F 55.4 °F 77% 30.12 in 10.0 mi WSW 3.5 mph - N/A   Unknown
9:35 AM 62.6 °F 55.4 °F 77% 30.12 in 10.0 mi Calm Calm - N/A   Unknown
9:36 AM 62.6 °F 55.4 °F 77% 30.12 in 10.0 mi Calm Calm - N/A   Unknown
9:55 AM 62.6 °F 55.4 °F 77% 30.12 in 10.0 mi Calm Calm - N/A   Unknown
10:18 AM 62.6 °F 55.4 °F 77% 30.12 in 10.0 mi WSW 9.2 mph - N/A   Unknown
10:36 AM 62.6 °F 55.4 °F 77% 30.12 in 10.0 mi WSW 8.1 mph 16.1 mph N/A   Unknown
10:56 AM 66.2 °F 57.2 °F 73% 30.12 in 10.0 mi WSW 9.2 mph - N/A   Mostly Cloudy
11:15 AM 64.4 °F 57.2 °F 77% 30.13 in 10.0 mi WSW 10.4 mph - N/A   Overcast
11:16 AM 64.4 °F 55.4 °F 73% 30.13 in 10.0 mi WSW 10.4 mph - N/A   Overcast
11:35 AM 64.4 °F 57.2 °F 77% 30.13 in 10.0 mi WSW 5.8 mph - N/A   Mostly Cloudy
11:39 AM 68.0 °F 57.2 °F 68% 30.13 in 10.0 mi WSW 8.1 mph - N/A   Scattered Clouds
11:57 AM 68.0 °F 57.2 °F 68% 30.13 in 10.0 mi WSW 8.1 mph - N/A   Mostly Cloudy
12:15 PM 68.0 °F 59.0 °F 73% 30.13 in 10.0 mi WSW 8.1 mph - N/A   Overcast
12:35 PM 68.0 °F 59.0 °F 73% 30.12 in 10.0 mi WSW 17.3 mph 23.0 mph N/A   Mostly Cloudy
12:55 PM 69.8 °F 59.0 °F 68% 30.12 in 10.0 mi WSW 5.8 mph - N/A   Scattered Clouds
12:56 PM 69.8 °F 59.0 °F 68% 30.12 in 10.0 mi WSW 8.1 mph - N/A   Scattered Clouds
1:18 PM 69.8 °F 59.0 °F 68% 30.12 in 10.0 mi WSW 6.9 mph - N/A   Mostly Cloudy
1:37 PM 71.6 °F 59.0 °F 64% 30.12 in 10.0 mi WSW 5.8 mph - N/A   Scattered Clouds
1:55 PM 69.8 °F 59.0 °F 68% 30.12 in 10.0 mi WSW 5.8 mph - N/A   Mostly Cloudy
1:56 PM 69.8 °F 59.0 °F 68% 30.12 in 10.0 mi WSW 5.8 mph - N/A   Mostly Cloudy
2:15 PM 71.6 °F 60.8 °F 69% 30.12 in 10.0 mi WSW 6.9 mph - N/A   Overcast
2:16 PM 71.6 °F 60.8 °F 69% 30.12 in 10.0 mi WSW 4.6 mph - N/A   Overcast
2:35 PM 71.6 °F 59.0 °F 64% 30.12 in 10.0 mi WSW 8.1 mph - N/A   Mostly Cloudy
2:40 PM 71.6 °F 59.0 °F 64% 30.12 in 10.0 mi WSW 11.5 mph 17.3 mph N/A   Mostly Cloudy
2:57 PM 71.6 °F 59.0 °F 64% 30.12 in 10.0 mi WSW 6.9 mph 16.1 mph N/A   Scattered Clouds
3:15 PM 71.6 °F 59.0 °F 64% 30.11 in 10.0 mi WSW 9.2 mph - N/A   Mostly Cloudy
3:16 PM 71.6 °F 59.0 °F 64% 30.11 in 10.0 mi WSW 6.9 mph - N/A   Mostly Cloudy
3:35 PM 73.4 °F 59.0 °F 61% 30.10 in 10.0 mi WSW 4.6 mph - N/A   Mostly Cloudy
3:36 PM 73.4 °F 59.0 °F 61% 30.10 in 10.0 mi Calm Calm - N/A   Mostly Cloudy
3:55 PM 73.4 °F 60.8 °F 65% 30.10 in 10.0 mi WSW 4.6 mph - N/A   Scattered Clouds
4:17 PM 73.4 °F 59.0 °F 61% 30.09 in 10.0 mi WSW 3.5 mph - N/A   Scattered Clouds
4:36 PM 73.4 °F 59.0 °F 61% 30.09 in 10.0 mi Calm Calm - N/A   Scattered Clouds
4:55 PM 73.4 °F 59.0 °F 61% 30.09 in 10.0 mi WSW 5.8 mph - N/A   Clear
4:56 PM 73.4 °F 59.0 °F 61% 30.09 in 10.0 mi WSW 5.8 mph - N/A   Clear
5:15 PM 73.4 °F 59.0 °F 61% 30.09 in 10.0 mi WSW 4.6 mph - N/A   Clear
5:16 PM 73.4 °F 60.8 °F 65% 30.09 in 10.0 mi WSW 4.6 mph - N/A   Scattered Clouds
5:38 PM 73.4 °F 59.0 °F 61% 30.08 in 10.0 mi WSW 5.8 mph - N/A   Scattered Clouds
5:56 PM 73.4 °F 59.0 °F 61% 30.08 in 10.0 mi WSW 4.6 mph - N/A   Clear
6:16 PM 73.4 °F 60.8 °F 65% 30.07 in 10.0 mi WSW 4.6 mph - N/A   Clear
6:35 PM 73.4 °F 59.0 °F 61% 30.07 in 10.0 mi WSW 4.6 mph - N/A   Clear
6:55 PM 71.6 °F 60.8 °F 69% 30.07 in 10.0 mi WSW 3.5 mph - N/A   Clear
6:59 PM 71.6 °F 60.8 °F 69% 30.07 in 10.0 mi WSW 3.5 mph - N/A   Clear
7:17 PM 69.8 °F 59.0 °F 68% 30.07 in 10.0 mi WSW 3.5 mph - N/A   Clear
7:36 PM 68.0 °F 60.8 °F 78% 30.07 in 10.0 mi Calm Calm - N/A   Clear
7:55 PM 64.4 °F 60.8 °F 88% 30.06 in 10.0 mi Calm Calm - N/A   Scattered Clouds
7:56 PM 64.4 °F 60.8 °F 88% 30.06 in 10.0 mi Calm Calm - N/A   Scattered Clouds
8:15 PM 64.4 °F 60.8 °F 88% 30.07 in 10.0 mi Calm Calm - N/A   Scattered Clouds
8:38 PM 62.6 °F 60.8 °F 94% 30.07 in 10.0 mi Calm Calm - N/A   Scattered Clouds
8:56 PM 62.6 °F 60.8 °F 94% 30.07 in 10.0 mi WSW 4.6 mph - N/A   Scattered Clouds
9:15 PM 64.4 °F 62.6 °F 94% 30.07 in 10.0 mi Calm Calm - N/A   Overcast
9:16 PM 64.4 °F 62.6 °F 94% 30.07 in 10.0 mi Calm Calm - N/A   Overcast
9:35 PM 66.2 °F 62.6 °F 88% 30.07 in 10.0 mi WSW 4.6 mph - N/A   Overcast
9:58 PM 68.0 °F 60.8 °F 78% 30.07 in 10.0 mi WSW 6.9 mph - N/A   Overcast
10:17 PM 68.0 °F 60.8 °F 78% 30.07 in 10.0 mi WSW 9.2 mph - N/A   Scattered Clouds
10:36 PM 68.0 °F 59.0 °F 73% 30.08 in 10.0 mi WSW 10.4 mph - N/A   Clear
10:55 PM 66.2 °F 59.0 °F 78% 30.08 in 10.0 mi WSW 9.2 mph 17.3 mph N/A   Clear
10:56 PM 66.2 °F 59.0 °F 78% 30.08 in 10.0 mi WSW 8.1 mph 17.3 mph N/A   Clear
11:15 PM 64.4 °F 57.2 °F 77% 30.09 in 10.0 mi WSW 6.9 mph - N/A   Clear
11:20 PM 64.4 °F 55.4 °F 73% 30.09 in 10.0 mi WSW 8.1 mph - N/A   Scattered Clouds
11:37 PM 64.4 °F 55.4 °F 73% 30.09 in 10.0 mi WSW 4.6 mph - N/A   Mostly Cloudy
11:55 PM 62.6 °F 55.4 °F 77% 30.09 in 10.0 mi WSW 3.5 mph - N/A   Mostly Cloudy